Theta_e
350 351 349 354 354 353 353 353 353 354 354 354 354 355 355 355 355 355 355 355 355 354 354 354 353 353 352 352 352 352 351 351 351 351 351 352 351 351 351 351 350 350 351 351 351 351 351 352 352 351 351 349 348 347 347 346 345 345 346 347 347 348 348 348 348 347 346 344 344 343 342 342 341 340 340 340 340 339 339 338 339 332 332 334 334
350 352 351 355 353 354 353 353 353 353 354 354 354 354 354 354 354 354 354 354 354 354 353 352 352 351 351 351 351 351 351 351 351 351 350 351 351 350 350 350 350 350 350 351 351 351 350 350 350 350 349 348 348 348 348 347 345 344 346 348 349 349 348 346 345 344 344 343 340 339 340 339 339 339 339 340 339 339 338 338 338 336 334 333 334
353 353 351 354 354 353 353 352 353 353 353 354 354 354 354 354 353 353 353 353 353 353 352 351 351 351 351 351 351 351 351 351 350 350 350 350 351 349 349 350 349 350 351 351 350 350 349 349 349 349 349 349 348 348 347 347 345 344 345 346 346 346 345 345 344 343 341 342 343 342 340 339 338 339 338 337 337 338 341 341 338 336 334 334 334
353 352 351 355 353 353 353 353 352 353 353 353 353 354 353 353 353 353 352 353 352 352 351 351 352 351 351 352 351 351 351 351 350 350 350 349 349 349 349 349 349 350 350 349 349 349 349 348 349 349 348 348 347 346 345 346 345 344 344 346 346 346 345 344 345 343 342 343 343 342 341 339 339 341 341 340 339 340 340 341 338 336 335 334 334
353 352 351 352 353 353 353 353 352 353 353 353 353 353 353 353 352 352 352 352 352 352 351 351 351 351 351 351 351 351 351 350 350 350 349 349 350 348 348 347 347 348 349 349 349 349 348 347 348 347 347 346 345 345 344 345 345 343 343 344 345 345 345 345 345 344 344 342 344 346 341 339 340 340 340 340 340 339 340 341 339 335 334 335 335
353 352 350 350 349 354 353 353 353 353 352 352 352 352 353 353 352 352 352 351 351 351 351 351 351 351 351 351 350 350 350 350 350 350 351 349 351 349 348 347 347 347 347 348 348 348 348 347 346 346 346 345 345 344 344 344 344 343 343 343 343 344 344 343 343 343 342 342 342 342 343 342 339 339 340 340 339 339 339 341 339 336 334 334 335
355 350 349 350 350 351 352 353 353 353 352 352 352 353 352 352 352 352 352 352 352 351 351 351 352 352 351 351 350 350 350 349 349 349 350 350 350 350 348 348 347 347 346 346 347 347 346 346 346 346 345 345 344 345 344 344 344 344 343 343 343 343 343 342 341 340 342 344 345 345 342 340 340 338 339 340 339 339 339 342 341 337 334 335 334
354 353 349 350 352 353 353 353 353 353 352 352 353 352 352 352 352 352 352 352 352 352 352 352 352 351 351 351 350 350 350 350 350 349 350 349 348 349 349 348 347 347 346 346 346 346 345 346 345 345 345 345 345 344 343 344 344 343 344 343 342 342 342 341 340 340 340 344 344 346 345 343 340 339 339 338 339 339 338 340 340 338 335 334 333
352 352 352 352 352 353 353 353 352 352 352 353 352 352 352 353 352 352 352 352 352 352 352 352 351 351 351 350 350 350 350 350 348 349 349 349 348 348 348 348 347 347 347 347 346 346 345 345 345 344 345 346 345 343 343 344 344 343 343 343 343 342 341 340 340 341 346 343 344 343 343 342 342 341 338 339 340 337 336 338 340 337 335 334 334
352 353 353 352 352 353 352 352 352 352 352 352 352 352 353 352 352 352 352 352 352 352 352 351 351 351 351 351 350 350 349 348 349 350 349 349 348 347 347 347 348 347 346 346 345 345 345 345 344 346 346 345 344 344 344 344 344 344 344 343 342 342 342 340 340 342 344 342 342 343 344 350 341 339 339 340 337 336 339 339 340 339 334 333 334
353 352 353 351 353 351 351 352 353 352 352 352 352 352 352 352 352 352 352 352 352 352 351 351 351 351 351 350 350 350 349 349 349 349 347 345 347 346 345 346 346 347 346 345 345 345 344 344 346 347 346 345 345 345 345 345 344 343 343 343 342 341 341 342 340 342 343 341 343 341 339 342 342 341 338 336 338 338 337 337 337 338 335 334 334
351 352 354 352 352 350 351 352 353 352 352 352 352 352 352 352 352 352 352 351 351 351 351 351 351 350 350 350 350 349 349 349 348 348 347 347 348 347 345 344 343 345 346 346 345 345 345 347 347 346 346 345 345 345 345 344 342 342 342 342 342 341 340 344 342 342 343 341 341 344 341 341 340 337 337 338 338 338 337 337 339 338 336 334 333
351 351 354 354 352 351 351 352 352 353 352 353 352 352 352 352 352 352 352 351 351 351 351 351 351 351 350 349 349 348 349 348 348 347 346 347 346 345 345 343 345 346 346 346 345 345 345 346 346 346 345 345 345 344 343 342 342 342 341 341 341 342 338 341 341 342 341 342 342 342 340 342 342 338 338 337 341 341 342 342 340 338 335 334 333
350 349 350 352 352 353 352 351 352 353 353 352 352 352 352 352 352 352 352 351 351 351 350 350 350 350 350 349 348 349 349 349 348 348 348 347 344 346 346 346 346 346 346 346 346 346 346 345 344 344 344 344 343 342 341 341 341 341 340 344 344 343 342 346 343 341 341 340 342 340 341 342 341 339 338 338 340 340 341 340 338 338 336 334 333
350 351 356 352 349 352 353 351 351 352 351 351 351 351 351 351 351 351 351 351 350 350 350 349 350 349 349 349 349 349 349 349 348 348 348 348 347 347 347 346 346 346 346 345 345 345 345 344 343 342 342 343 342 342 342 341 342 342 342 343 343 342 342 343 340 342 340 339 340 340 341 340 340 342 338 338 341 341 340 339 338 338 336 333 332
353 351 353 351 349 350 351 351 350 351 351 351 351 351 351 351 351 351 350 350 350 350 350 350 350 349 349 349 349 348 348 348 347 348 348 348 348 347 346 346 345 346 345 345 345 344 343 343 343 342 342 341 341 341 341 341 342 342 343 343 342 342 344 344 344 341 342 341 340 340 340 341 342 339 337 340 341 339 337 336 336 335 336 335 333
355 355 353 352 352 350 349 349 353 352 351 351 351 351 351 350 350 350 350 350 350 350 350 350 350 349 349 349 349 348 348 348 347 347 347 347 345 346 345 344 344 345 345 345 344 343 343 342 342 341 341 341 340 341 341 341 341 343 344 343 341 340 341 344 342 342 341 340 339 339 341 339 341 341 337 337 336 336 336 336 336 336 336 335 333
353 354 352 351 349 350 349 350 353 355 356 353 351 350 350 350 349 349 350 350 350 350 350 349 349 349 349 348 348 347 347 347 347 346 346 345 345 345 344 343 343 345 344 344 344 343 342 342 341 341 341 341 340 341 341 341 342 343 343 343 341 340 341 343 345 342 341 340 339 339 343 341 340 339 337 337 337 335 337 336 336 336 335 336 335
351 351 349 351 349 350 348 349 352 354 351 353 351 352 350 350 349 350 349 349 349 349 349 349 349 349 348 348 348 347 347 347 346 346 346 346 346 346 345 344 344 345 344 344 343 342 341 341 340 340 340 340 340 340 340 341 342 342 342 343 341 341 341 344 343 341 341 342 341 340 341 339 343 338 338 338 337 337 335 335 335 336 335 333 334
349 351 350 347 350 351 352 349 350 354 351 354 353 350 349 349 349 348 349 348 348 347 348 348 348 348 348 348 347 349 348 348 346 347 346 346 346 345 345 344 344 344 343 344 343 342 341 341 341 340 340 339 339 340 340 340 340 340 342 343 342 341 345 344 342 342 343 340 342 341 340 342 338 338 338 337 336 335 335 335 336 336 336 335 334
347 348 351 350 351 350 346 350 348 347 352 353 354 349 347 346 346 346 347 348 347 347 348 348 348 348 348 347 347 349 350 349 348 346 346 347 346 345 345 345 344 344 343 343 343 342 342 342 341 339 338 338 338 338 338 338 338 339 340 344 342 346 346 343 344 343 342 341 341 340 341 339 340 338 338 337 336 335 335 335 336 335 336 337 335
343 345 348 349 349 351 351 350 350 351 346 345 343 348 343 345 347 348 350 346 345 346 349 348 347 348 348 348 351 349 349 348 348 345 348 346 347 344 345 344 344 344 343 342 342 342 342 342 341 339 336 338 338 339 337 338 337 340 341 344 346 344 344 344 344 342 342 342 341 339 340 339 339 338 338 337 336 336 336 336 336 336 337 336 335
340 343 345 346 348 348 349 349 345 345 343 343 343 342 347 344 347 346 345 345 346 348 347 347 346 346 344 348 350 349 347 348 348 344 347 343 347 344 344 344 343 343 343 343 342 342 342 342 340 340 338 335 342 337 336 337 339 337 342 346 345 343 344 343 342 343 342 341 341 340 339 339 338 337 338 336 336 335 336 336 336 336 336 335 335
341 343 343 347 348 347 347 347 345 345 343 350 342 348 344 348 345 344 343 342 350 345 345 344 347 349 350 350 348 348 348 350 344 344 345 344 347 344 343 343 343 343 343 344 343 343 342 342 341 338 341 341 338 334 335 336 338 343 344 343 342 344 343 342 340 342 342 338 338 340 338 339 340 336 337 337 335 334 335 337 336 336 336 335 336
341 343 343 345 346 347 349 348 346 346 346 347 350 347 346 347 346 345 348 347 345 344 345 349 349 349 349 349 346 348 347 348 348 345 345 345 343 343 343 342 340 340 343 341 340 341 343 343 339 340 339 337 335 336 337 337 340 341 342 343 343 344 343 342 341 341 342 342 340 340 339 339 340 336 337 336 336 335 334 336 335 335 336 336 335
343 340 341 344 346 346 347 348 348 348 346 346 348 348 350 348 348 348 348 344 347 347 348 348 349 349 349 348 348 348 347 348 347 346 345 346 344 343 343 344 343 339 339 339 339 340 339 341 339 337 336 337 336 336 337 337 338 339 339 345 344 343 342 340 341 341 343 342 340 340 339 338 339 336 336 336 336 335 335 333 336 337 337 336 335
339 341 343 343 345 346 346 344 345 346 347 348 348 344 342 342 342 344 345 341 339 343 348 349 348 348 349 348 347 346 345 347 345 345 344 345 344 344 342 340 341 339 339 340 341 338 338 339 338 337 336 335 334 334 334 336 337 336 338 341 343 342 342 340 341 341 342 342 340 340 339 339 339 337 335 335 335 335 335 334 335 335 337 336 335
340 342 343 344 344 343 343 344 341 346 346 347 345 344 345 343 342 343 343 343 341 343 345 347 347 347 348 348 349 346 343 343 344 345 344 345 344 345 344 340 339 340 340 342 342 339 336 337 337 335 334 335 333 334 333 334 336 338 336 337 341 342 343 341 343 343 342 342 340 341 340 339 339 341 336 335 335 335 335 334 334 333 333 335 335
340 341 341 340 341 342 343 342 343 344 346 347 346 346 341 341 341 343 343 340 340 338 342 346 347 349 350 348 348 346 344 343 341 344 344 346 346 346 344 342 341 340 341 341 342 342 340 336 335 334 335 334 334 335 333 334 337 338 337 337 338 340 342 343 344 341 342 341 342 340 340 340 340 339 338 335 334 334 335 335 334 334 332 331 335
338 338 338 339 340 341 341 342 342 342 344 344 343 341 345 341 340 337 340 339 342 341 345 346 348 348 347 347 347 346 345 343 342 342 343 345 346 347 345 344 342 342 340 341 343 343 340 338 336 335 333 335 335 334 334 333 333 336 337 337 337 337 342 341 342 341 342 341 341 340 341 340 339 339 339 340 335 334 332 333 334 334 333 332 331
335 335 337 338 341 340 340 341 342 344 343 341 341 340 343 342 339 340 341 340 346 348 348 347 347 347 347 347 342 340 338 337 339 335 336 341 343 339 338 341 344 340 340 344 343 342 343 339 338 336 336 336 335 333 332 333 333 333 335 334 335 337 338 341 340 340 340 342 341 342 341 340 340 339 339 339 339 336 334 333 333 333 333 332 332
332 331 337 340 340 340 339 341 342 344 340 339 342 338 341 340 341 343 344 345 349 349 346 347 347 346 340 337 339 337 335 335 333 332 334 341 335 336 335 338 338 337 338 334 335 338 340 338 336 339 340 340 336 335 335 333 335 333 334 332 334 335 335 337 336 340 339 342 341 342 342 340 340 339 339 338 338 338 336 333 334 334 333 333 332
335 334 335 337 339 341 340 340 341 344 341 343 344 342 341 343 345 345 347 349 349 348 346 345 346 336 335 338 336 334 334 335 335 336 337 338 340 341 339 339 339 337 337 335 336 337 339 339 338 339 339 340 338 336 332 334 335 335 335 334 336 333 334 335 337 339 340 340 339 342 343 341 341 339 337 338 337 339 340 337 335 335 334 333 332
333 335 335 335 338 341 341 341 341 338 343 343 344 344 346 345 344 346 348 348 347 346 344 344 344 339 337 337 336 333 335 335 333 333 335 337 340 341 341 341 339 336 337 336 336 335 338 339 337 337 336 338 337 338 333 333 332 334 336 334 337 337 336 333 336 337 338 338 340 343 342 341 340 340 340 338 338 338 338 339 337 336 335 334 333
336 336 335 337 340 341 342 340 343 340 343 342 343 344 343 343 343 345 346 346 346 344 343 342 343 343 340 337 337 336 335 336 334 334 336 337 338 339 341 342 337 338 343 342 337 337 337 339 337 336 336 338 339 338 337 337 333 333 335 335 334 334 336 335 336 334 333 337 342 341 341 339 339 337 338 340 339 338 338 338 339 338 337 336 335
338 337 337 339 340 342 343 341 344 343 343 344 345 344 344 346 347 345 349 347 345 344 343 341 341 341 342 339 336 337 336 335 335 335 336 337 338 341 341 342 341 341 341 340 337 340 340 340 340 338 335 336 336 336 338 338 339 338 336 336 335 334 335 336 336 334 335 338 336 341 340 340 340 339 335 340 341 339 337 338 337 338 339 338 337
339 338 338 337 336 341 343 344 343 342 344 345 344 345 346 346 346 345 344 345 343 342 341 342 341 340 341 342 341 340 339 337 338 336 336 337 337 339 341 341 341 340 341 341 335 336 340 338 339 340 339 336 335 334 337 338 337 337 340 341 340 339 338 340 339 340 338 337 338 339 338 338 340 335 342 340 341 340 338 337 337 337 337 338 338
339 341 339 335 336 340 343 343 343 344 347 344 344 344 344 345 344 343 344 341 341 341 341 340 340 339 340 339 341 341 340 340 340 339 339 338 338 338 337 339 340 340 340 340 340 341 341 337 339 340 339 339 336 335 335 336 336 337 338 339 338 337 337 340 339 338 337 334 336 337 338 339 339 339 340 340 339 340 341 337 338 337 337 336 335
340 341 339 336 336 342 341 336 341 346 346 344 343 343 342 342 342 342 341 340 340 340 338 338 340 339 339 340 339 340 339 339 340 340 339 338 339 338 336 337 339 339 339 339 338 340 340 342 339 339 342 339 338 338 337 337 336 336 336 336 336 337 338 338 337 338 337 338 338 336 337 338 338 338 338 338 339 340 340 340 340 338 339 335 337
340 341 340 338 339 342 338 335 340 345 345 342 342 340 340 339 338 339 338 338 338 337 339 337 339 338 339 339 338 340 339 339 339 340 339 340 339 338 337 337 338 335 336 336 336 337 337 337 339 338 339 339 339 339 339 337 336 335 334 335 336 337 337 336 337 337 336 336 338 338 337 336 339 338 337 337 338 338 339 338 338 337 337 337 336
341 342 343 337 338 343 337 338 340 343 342 340 339 339 338 338 338 337 335 336 335 338 337 338 337 336 338 335 338 337 339 339 340 341 340 339 340 339 338 337 338 336 336 332 337 337 334 335 338 338 336 336 336 339 338 338 334 331 334 334 335 335 334 334 335 335 335 336 337 336 336 336 337 338 339 339 338 338 339 339 338 337 338 338 337
339 340 339 338 338 340 340 340 341 342 342 342 341 339 339 337 336 334 334 334 333 333 333 336 337 337 338 337 337 337 338 338 338 341 342 340 339 338 338 337 337 338 338 337 338 337 337 336 337 335 336 335 335 336 337 336 331 328 326 327 329 332 333 334 331 330 332 333 334 334 336 335 334 337 338 338 339 338 339 339 339 339 337 336 337
339 338 340 340 339 337 335 340 341 342 343 343 341 339 339 340 338 336 334 332 335 336 334 335 337 335 338 337 337 338 336 336 337 339 340 338 339 339 338 339 338 338 337 336 337 336 337 336 336 334 333 335 333 336 337 334 328 331 331 325 320 321 327 330 332 330 331 333 334 333 332 331 330 333 335 336 335 335 334 335 337 337 337 337 335
337 338 339 338 339 336 340 339 342 343 343 342 340 341 341 342 342 340 339 336 335 338 338 338 335 334 334 336 336 337 336 335 334 334 335 338 340 340 341 340 339 338 337 335 335 334 335 336 335 334 335 330 329 330 335 337 334 330 324 321 323 321 314 321 326 328 331 331 332 331 331 330 331 332 333 331 331 333 334 333 333 334 334 334 334
337 337 338 338 338 341 342 343 343 343 342 341 341 341 340 340 341 341 340 338 337 335 333 331 332 330 329 332 333 336 335 334 334 334 333 334 335 337 337 337 338 339 339 337 335 334 334 334 335 334 333 331 329 329 331 334 336 336 330 324 322 318 315 322 325 325 331 328 329 330 330 330 330 330 330 329 331 333 332 331 333 334 334 334 333
337 338 339 339 340 340 341 343 343 342 341 342 341 340 339 337 334 331 330 330 329 330 329 328 328 329 325 327 329 334 334 334 333 332 332 333 334 334 335 333 334 335 336 337 336 335 335 333 334 334 330 334 333 329 328 332 334 336 335 335 328 320 321 323 323 317 328 330 327 326 327 327 327 326 326 326 326 326 327 327 329 330 331 332 332
337 339 340 341 343 342 343 343 343 341 342 341 341 341 339 338 336 334 332 330 328 330 332 331 330 327 328 328 329 333 333 333 333 332 332 333 333 334 335 334 333 334 334 334 333 335 333 334 335 334 332 332 334 330 327 329 332 333 333 334 334 331 330 323 321 321 318 321 324 323 322 323 324 323 322 322 324 324 325 325 326 327 327 330 332
339 339 339 340 341 342 343 343 343 342 343 342 341 341 339 337 336 335 332 330 330 331 332 332 332 329 327 327 329 330 333 332 332 331 332 331 332 332 333 334 332 332 331 331 332 333 334 336 336 335 333 332 331 328 328 331 328 329 333 332 330 331 331 329 328 322 319 315 315 320 322 323 323 322 322 321 323 323 323 324 324 324 324 325 326
340 340 340 342 343 343 343 343 343 343 342 343 341 341 339 338 336 334 332 332 332 331 331 330 328 329 327 328 329 328 331 333 331 331 331 330 330 330 332 332 332 332 331 331 333 335 337 337 336 334 332 331 332 330 328 328 330 329 330 331 331 328 328 329 329 327 319 316 313 314 315 320 322 321 321 322 322 323 322 321 320 321 323 323 323
340 341 341 342 342 342 341 342 341 341 341 342 341 340 340 338 335 334 333 331 331 330 329 327 327 328 326 328 328 328 328 329 331 331 331 329 330 330 329 332 332 331 329 331 333 334 336 336 337 336 334 332 332 332 330 329 331 333 332 331 328 328 328 327 326 325 323 322 315 313 315 316 314 316 321 320 320 320 320 321 321 319 321 322 321
340 339 340 340 340 340 340 339 340 339 340 340 340 341 340 338 335 335 333 333 331 330 327 327 326 326 325 326 326 325 328 327 328 330 330 329 329 329 330 332 333 332 329 328 329 328 331 332 334 335 336 335 333 334 332 331 330 329 329 328 328 327 326 324 324 325 324 321 316 315 317 316 315 314 317 318 318 317 317 319 318 318 320 321 321
Wind_Speed
14 17 16 18 16 16 17 16 17 15 16 16 16 16 16 16 16 18 18 17 17 17 17 16 16 15 15 15 14 13 13 13 13 12 11 12 13 13 14 14 14 14 14 14 14 15 15 14 14 13 13 12 12 11 11 10 10 9 9 10 11 11 10 12 12 12 12 13 14 13 12 12 13 12 12 11 11 9 9 9 8 10 8 10 10
17 16 15 17 16 16 17 17 17 16 16 17 16 15 16 16 16 17 17 17 16 16 16 16 15 15 15 15 14 13 12 12 12 12 11 11 12 13 13 14 14 14 14 14 13 13 13 13 13 13 12 11 12 12 11 10 10 9 11 12 12 12 11 9 11 11 12 11 12 12 13 12 12 12 12 11 11 11 10 11 13 9 9 11 9
17 16 15 17 17 18 17 18 18 17 17 17 17 16 15 16 16 16 16 16 15 16 16 16 16 15 14 14 13 12 12 12 12 12 11 11 10 14 14 13 13 13 13 14 13 12 12 13 12 12 12 11 12 11 10 11 9 9 13 13 12 11 11 11 10 11 11 12 13 13 13 11 11 11 11 11 11 11 13 14 13 12 10 10 10
18 15 15 17 18 16 17 19 19 19 17 17 17 16 16 15 15 15 15 15 15 15 16 16 14 14 13 13 12 12 12 12 12 12 12 11 11 12 13 12 14 14 13 13 13 12 12 12 12 11 11 11 11 10 10 10 9 8 10 12 11 11 10 10 9 10 10 11 14 12 8 9 10 12 11 11 11 12 12 14 14 14 12 11 13
18 16 16 15 17 18 18 18 18 20 19 19 18 18 17 16 16 15 14 14 14 14 15 14 14 14 13 13 13 13 12 12 12 12 12 12 11 12 12 12 13 13 13 12 12 12 12 12 12 11 11 10 10 10 11 10 9 9 9 10 11 10 10 10 9 8 6 7 10 6 8 9 9 11 11 11 11 11 12 13 14 12 12 13 12
17 16 16 15 15 18 18 18 20 21 20 20 19 19 19 17 16 15 15 14 14 14 14 14 14 14 14 13 13 13 12 12 12 12 11 11 9 12 13 13 13 12 12 12 12 12 12 12 12 11 10 10 10 10 11 11 10 10 9 9 9 10 10 9 8 6 5 4 10 2 6 8 8 8 9 10 10 10 12 13 13 13 10 13 12
18 15 15 15 13 16 16 18 21 20 20 20 20 19 19 18 18 16 16 15 14 14 14 14 14 13 14 13 12 12 11 11 11 10 10 9 9 9 12 13 13 12 12 13 12 12 12 11 11 11 10 11 11 11 11 11 11 9 9 9 9 8 9 9 4 2 4 8 5 5 5 7 8 7 9 10 10 12 12 13 13 12 10 11 11
15 13 14 14 13 15 16 18 21 20 20 20 18 19 18 18 17 17 16 15 14 13 12 13 13 13 13 12 12 12 12 12 11 11 10 9 7 7 11 13 12 12 11 11 10 11 12 11 11 11 10 11 11 11 12 12 11 10 9 8 8 8 8 6 3 5 6 4 3 5 5 7 7 7 9 9 10 10 11 12 12 11 9 8 8
15 16 15 14 15 18 16 17 18 20 19 19 19 20 19 18 18 17 16 15 13 12 12 12 13 12 13 12 12 11 12 12 12 13 11 10 8 8 8 10 11 11 11 10 10 9 9 11 11 10 10 11 11 12 12 11 11 10 9 9 8 8 6 3 5 6 7 4 4 5 6 7 6 8 8 9 9 9 7 9 14 12 11 10 10
16 15 14 13 17 18 17 17 18 19 18 18 18 18 17 16 16 15 15 14 13 12 12 12 13 13 13 13 12 11 11 10 12 13 13 12 9 9 7 7 12 12 11 11 10 9 8 8 10 10 11 12 12 12 11 10 9 7 6 7 7 7 6 3 8 12 2 3 6 7 8 13 8 7 9 9 8 9 13 17 15 13 10 11 12
16 14 14 15 20 17 17 17 17 18 19 18 18 18 18 17 17 15 14 14 14 13 13 13 13 13 13 12 11 11 11 11 11 12 12 7 12 10 8 7 9 11 11 11 10 9 9 9 10 11 12 12 11 9 8 8 7 6 6 5 5 5 4 7 9 2 4 6 6 6 8 7 7 8 9 9 10 10 10 9 10 12 12 11 11
15 14 13 14 19 16 16 17 17 17 18 17 17 18 17 17 16 15 14 13 13 13 12 11 11 12 12 12 12 11 11 10 9 10 10 12 13 11 9 8 5 10 10 11 10 9 9 10 11 11 11 10 9 8 7 6 6 6 5 4 4 2 4 6 9 4 3 6 7 4 4 7 9 9 9 9 9 9 8 9 11 11 11 12 12
14 15 13 16 16 15 15 16 17 17 18 18 17 17 17 17 16 15 13 12 11 11 11 11 11 10 11 12 12 11 10 10 10 12 10 12 12 12 11 10 10 11 10 10 11 11 10 10 11 10 8 7 7 6 6 6 5 4 3 3 1 1 3 11 7 3 4 4 4 5 6 6 9 8 8 9 11 9 10 11 12 11 10 10 11
14 14 13 15 14 16 14 14 15 15 16 16 16 14 14 14 14 14 13 12 11 10 9 10 10 11 11 11 11 10 9 9 9 10 11 11 13 13 11 11 10 11 11 11 10 11 12 10 9 9 8 6 6 5 5 6 5 3 3 2 1 2 4 9 10 3 4 5 4 7 6 6 8 8 7 8 9 10 10 11 11 11 10 9 10
13 15 13 15 15 15 17 14 14 15 15 15 14 14 13 13 12 12 13 13 12 11 10 11 10 11 12 12 11 11 10 9 9 9 10 11 11 11 11 11 11 11 12 12 12 11 11 10 9 9 8 6 4 5 4 5 4 3 2 2 1 2 10 5 2 4 4 3 4 3 7 8 6 4 8 7 11 11 10 10 10 10 10 9 8
14 15 14 14 14 14 14 16 16 16 15 15 15 14 14 13 13 14 13 13 12 11 11 10 10 11 11 10 10 10 10 10 9 9 9 10 10 10 10 9 10 11 12 12 12 13 12 11 9 8 7 6 5 4 4 5 4 3 3 1 2 1 6 10 2 3 3 4 4 5 6 8 3 3 6 10 10 9 8 8 9 9 9 9 9
13 15 15 15 14 13 12 14 15 17 15 16 16 15 14 13 12 12 12 13 13 12 12 11 11 10 10 10 9 9 10 10 10 9 9 9 10 9 9 9 9 11 12 12 12 12 11 10 10 9 7 6 4 3 3 3 4 3 3 2 3 5 7 10 2 2 3 5 4 4 5 7 5 3 6 7 7 9 8 8 8 8 9 9 9
13 14 13 13 13 12 12 12 14 14 13 14 16 15 15 14 13 12 12 12 12 12 11 10 10 11 11 10 11 11 10 10 10 9 9 10 10 11 10 8 9 11 12 12 12 12 11 11 10 10 9 7 5 4 3 4 3 3 3 2 5 5 4 10 3 2 5 3 5 4 7 10 4 4 6 7 7 7 8 8 8 7 8 8 8
12 12 12 13 12 11 11 11 11 11 12 10 9 12 15 15 15 14 12 12 13 13 12 11 12 11 11 12 11 11 10 10 10 9 9 9 10 10 10 10 10 10 11 11 11 11 11 11 11 10 9 8 7 6 3 4 4 4 3 3 5 5 4 8 3 3 4 2 3 4 8 8 1 5 7 6 6 7 7 7 8 8 8 7 8
10 10 12 12 10 9 9 9 10 9 10 8 9 9 12 15 14 14 13 13 12 12 11 12 12 12 12 12 11 10 10 9 11 9 9 9 7 8 10 10 10 10 10 11 11 11 11 11 11 9 9 7 6 6 5 4 4 5 3 5 6 7 6 3 2 3 3 4 1 6 10 2 4 7 7 6 6 7 6 7 7 7 7 7 7
7 9 8 9 11 12 13 10 11 9 11 8 5 9 10 12 12 13 14 14 14 14 12 12 12 12 11 10 9 8 7 7 8 8 10 8 10 10 10 10 10 9 10 10 10 10 10 10 9 8 7 6 6 6 5 3 2 3 1 5 7 7 3 3 3 2 2 6 3 9 7 4 2 6 7 6 6 7 7 6 6 6 7 8 8
9 8 8 8 8 9 10 11 9 10 8 6 6 7 8 6 9 8 8 11 11 13 11 9 10 9 10 9 6 6 6 6 6 7 7 10 9 10 10 9 9 9 9 9 9 10 10 10 9 7 5 4 6 5 6 6 3 1 3 5 7 4 4 3 1 2 3 3 6 9 5 2 2 6 7 6 6 7 6 6 5 6 8 8 8
9 8 8 9 7 7 9 9 10 6 6 9 9 7 7 7 7 8 6 8 10 10 9 8 7 8 7 6 5 5 5 5 6 5 6 8 9 9 9 9 9 9 9 9 9 9 10 10 8 6 4 6 7 3 4 6 5 6 6 7 6 4 4 3 2 2 2 4 8 10 4 3 0 6 6 6 6 6 6 6 6 7 7 7 8
9 8 9 7 7 7 8 8 10 7 1 3 6 5 7 7 7 7 7 6 8 7 8 7 6 6 5 5 4 5 5 4 5 8 8 7 7 9 9 9 9 9 10 9 10 10 11 10 9 8 8 6 2 4 3 3 4 5 5 5 5 4 5 4 3 2 4 1 9 9 4 2 4 2 6 6 6 3 5 6 7 7 7 7 8
7 8 8 7 8 8 7 8 9 8 9 5 7 7 8 7 7 6 6 5 6 7 6 6 5 6 5 4 5 5 5 5 6 5 5 5 7 6 6 6 6 7 10 5 7 7 8 7 7 7 2 2 2 1 2 2 3 4 3 4 5 5 4 3 2 2 3 5 8 8 4 2 5 1 5 6 6 5 4 6 5 6 8 7 6
8 7 8 9 8 8 8 7 8 7 6 7 6 6 4 3 4 3 4 1 0 5 4 5 5 5 4 4 4 4 4 5 5 4 3 4 4 5 5 5 5 5 6 5 4 5 6 6 4 4 3 3 2 2 2 2 2 2 4 3 5 5 4 4 3 2 3 5 8 7 4 2 4 1 4 5 5 5 5 4 7 8 7 7 6
8 8 9 8 8 8 8 10 9 7 7 8 8 7 5 4 1 1 4 6 2 2 3 3 4 4 4 4 4 4 5 5 5 5 4 4 4 4 4 4 4 4 4 4 4 4 4 4 4 4 4 4 4 4 4 4 2 3 3 4 4 4 2 2 3 2 3 5 8 8 5 3 3 1 1 5 5 5 5 5 7 6 6 5 4
8 9 8 8 7 9 9 8 10 9 8 8 9 9 6 6 5 3 2 3 4 1 4 3 4 4 4 4 4 4 5 5 4 6 5 4 4 3 4 4 4 4 4 4 5 4 4 5 5 6 6 5 5 5 4 4 5 4 3 4 4 4 3 3 2 2 3 4 7 8 6 3 3 4 3 2 5 5 5 5 5 4 4 4 4
8 7 6 8 9 8 9 10 10 10 8 7 7 6 7 6 4 5 4 2 4 3 5 3 3 4 4 4 5 4 3 2 1 2 4 3 3 3 3 3 4 4 4 3 3 4 5 5 5 5 5 4 4 4 5 5 4 4 4 5 5 4 5 4 4 4 3 3 5 8 7 5 2 3 4 2 3 2 7 5 5 5 4 4 6
7 8 7 7 8 9 10 9 9 9 8 8 7 2 4 8 7 7 3 5 6 8 6 4 3 3 4 3 4 2 3 3 3 5 3 4 2 2 3 2 3 3 4 3 3 4 4 4 5 5 5 4 4 4 4 5 5 4 4 4 4 4 4 4 4 3 4 3 5 7 7 6 3 3 3 3 3 3 2 3 5 5 5 4 4
6 2 6 7 7 9 10 10 9 7 6 8 9 6 4 4 6 5 10 8 5 3 3 2 2 1 1 1 5 4 1 2 5 4 5 4 2 3 5 4 2 5 6 2 2 4 1 4 4 5 5 4 4 4 4 4 5 5 5 5 4 5 4 3 3 3 3 4 4 6 8 7 5 4 2 2 4 3 3 3 2 5 5 5 3
9 0 6 7 7 8 9 9 8 6 7 7 7 9 5 5 9 10 5 4 3 3 3 2 2 2 6 4 3 3 6 3 2 4 3 1 2 4 5 3 1 3 1 3 1 3 4 2 4 4 4 4 4 4 3 4 4 4 4 4 5 4 4 4 4 4 4 4 4 4 6 7 7 5 5 1 4 3 2 4 4 4 4 4 4
7 11 6 8 9 8 8 9 9 6 6 7 6 8 9 8 6 4 5 4 3 2 2 1 1 7 3 3 6 6 6 3 4 5 3 3 3 3 4 4 4 3 3 2 5 2 2 2 5 4 5 4 3 4 3 0 3 3 4 5 4 4 4 5 4 4 5 4 4 4 4 6 5 8 4 4 4 3 3 2 3 4 3 2 4
9 7 7 9 8 7 6 7 10 7 8 7 5 5 5 5 5 4 4 4 2 2 2 1 2 4 2 1 3 6 2 4 6 1 3 3 3 3 4 3 2 3 6 6 3 4 3 5 5 5 5 4 5 4 4 3 1 2 2 3 3 2 3 3 4 4 3 3 3 3 4 4 6 5 5 8 6 5 4 4 3 3 1 3 3
8 9 9 10 10 9 7 7 11 11 10 8 7 5 4 2 3 3 3 2 3 2 3 1 1 2 3 1 2 7 9 9 4 3 4 5 5 4 4 4 5 6 2 1 5 9 9 5 4 5 5 3 3 3 4 4 3 3 2 1 0 2 2 1 3 4 3 2 2 2 2 3 2 6 7 4 9 7 5 4 5 1 2 1 1
10 9 8 8 12 11 11 10 10 11 9 8 6 4 3 2 2 4 4 4 3 3 4 3 1 2 3 4 3 5 7 6 4 4 4 4 3 3 3 3 2 3 1 2 5 2 2 2 3 1 4 3 4 4 3 4 3 2 1 1 1 1 2 1 2 2 1 2 3 2 1 1 1 2 3 6 3 6 7 6 4 4 3 3 2
9 10 8 7 12 13 11 10 11 11 9 7 6 4 3 3 3 3 4 4 3 3 3 3 3 2 1 4 4 4 4 4 2 2 3 3 3 2 2 2 2 3 1 0 2 5 1 3 2 1 3 3 4 4 3 3 3 3 2 3 2 2 2 1 1 0 2 7 10 7 2 2 2 1 1 2 7 4 9 8 4 5 5 3 2
9 8 8 7 13 11 10 9 9 9 7 7 6 4 3 2 3 4 5 3 3 2 2 1 2 1 1 3 4 3 3 2 3 4 3 2 2 0 2 1 2 2 1 2 0 2 1 1 3 3 3 3 3 4 5 3 3 4 4 3 2 1 1 1 2 1 4 4 2 1 3 2 2 3 2 1 0 6 6 4 7 8 6 5 4
8 10 10 12 12 9 5 4 6 7 7 7 6 6 5 5 4 4 4 3 2 2 2 2 2 1 2 3 3 3 3 2 3 3 2 2 2 2 1 1 2 2 2 2 1 1 1 0 2 3 2 4 3 2 3 4 4 4 4 3 2 2 1 1 2 2 3 2 2 2 2 1 1 1 1 2 2 3 2 4 5 4 4 5 4
9 9 11 11 10 6 7 7 5 7 8 7 6 6 5 5 5 4 4 3 2 2 2 3 2 2 3 2 3 3 3 2 2 2 3 2 2 2 2 2 2 2 2 3 2 2 1 3 3 3 4 3 3 4 5 5 5 4 4 3 2 2 1 1 0 1 4 4 3 2 2 2 2 1 1 1 0 2 1 2 2 3 5 2 5
9 10 10 9 7 7 10 10 9 7 7 7 6 6 6 5 4 5 4 5 3 4 3 3 2 4 2 2 2 3 2 2 2 2 2 3 2 2 3 3 2 2 2 4 2 2 4 5 3 3 5 4 4 3 4 4 5 5 4 4 3 2 2 2 1 2 2 2 1 2 2 2 1 1 2 1 1 2 2 2 2 2 1 4 4
10 9 9 11 9 8 7 10 8 8 8 8 7 7 6 5 5 5 4 5 5 4 4 4 4 4 4 3 2 3 3 3 2 3 2 2 1 1 1 1 2 3 2 3 2 3 3 3 3 4 4 4 4 4 4 5 6 5 7 6 5 4 3 3 2 2 1 2 1 1 2 1 3 2 2 2 3 3 3 3 3 3 3 2 2
10 9 10 10 10 9 9 9 9 9 8 8 7 7 6 5 4 5 5 5 4 3 4 5 5 5 4 3 3 3 3 3 4 4 3 2 2 2 1 1 2 2 3 3 3 3 3 4 5 4 4 3 3 4 5 6 4 5 4 4 6 7 6 5 3 3 2 2 1 2 2 3 3 3 3 2 3 3 3 3 3 3 3 2 1
10 10 11 12 11 11 11 10 9 9 9 9 8 7 6 6 4 6 4 4 5 5 6 5 5 5 5 3 3 2 2 2 3 3 2 3 2 2 3 3 2 2 2 3 3 4 4 4 4 4 4 5 4 4 5 4 4 5 5 5 4 4 3 6 5 4 3 3 2 3 2 3 4 4 3 3 4 4 4 5 4 4 4 3 2
10 11 10 11 9 11 10 10 9 10 9 10 9 8 8 8 6 7 7 7 6 5 5 5 4 4 3 3 3 1 2 3 3 3 3 3 1 1 1 1 2 3 3 3 3 4 4 4 5 5 6 4 4 5 5 4 4 4 4 3 3 5 4 5 7 5 2 4 4 5 3 2 3 2 3 4 4 4 4 5 5 5 4 3 3
10 10 10 11 10 10 11 11 9 10 10 11 10 9 9 8 8 8 7 6 6 5 5 5 5 4 4 3 3 2 2 3 2 2 3 3 3 2 1 1 1 1 1 2 3 4 4 4 5 5 6 4 4 4 5 4 4 5 5 2 3 2 1 7 6 5 4 4 3 4 5 5 4 4 5 5 6 6 5 5 5 5 5 5 5
11 10 11 12 12 10 11 12 11 9 9 11 11 9 9 8 8 8 7 6 6 5 4 5 4 4 4 3 4 2 2 3 2 2 3 3 3 3 2 0 1 1 1 2 2 3 4 5 5 5 4 5 5 5 5 4 4 4 5 4 3 3 3 7 5 7 7 5 5 4 5 6 7 7 7 7 7 6 5 5 6 6 6 6 6
11 11 11 11 12 12 12 12 10 9 10 10 11 9 8 8 8 6 6 6 6 6 6 5 4 4 5 4 4 4 2 3 3 2 2 3 3 2 2 2 1 1 1 2 2 2 2 3 3 3 3 4 5 4 5 5 5 4 4 4 4 3 4 3 3 6 5 7 6 6 6 7 7 7 7 7 7 6 6 5 6 6 6 7 7
10 10 10 9 10 10 10 10 10 9 10 11 10 9 8 8 7 6 6 6 6 6 5 5 5 5 6 4 3 4 3 2 1 3 2 3 2 2 2 2 1 1 1 2 2 3 3 3 4 3 4 4 5 5 7 5 5 4 5 5 5 4 5 4 3 2 6 7 7 7 7 6 7 7 6 7 7 6 6 6 6 7 6 7 7
8 8 7 8 9 9 9 10 10 8 10 11 10 9 9 8 6 7 8 7 6 6 5 6 6 6 7 6 5 4 4 3 2 2 2 3 3 2 2 2 2 2 2 3 3 3 2 3 3 4 4 5 3 3 4 4 4 4 4 4 4 4 5 4 5 5 6 5 6 8 8 7 6 6 5 6 6 6 6 6 6 7 6 6 7
6 6 6 6 7 8 9 10 9 8 10 10 10 9 9 7 6 8 8 9 9 7 7 6 6 6 6 6 5 4 2 3 2 3 2 3 2 3 2 3 3 3 3 2 2 2 2 2 2 3 4 4 4 4 4 4 3 4 5 4 4 5 5 5 6 5 4 5 7 7 7 6 7 7 5 5 5 6 6 6 6 6 6 6 6
Wind_Direction
148 137 138 133 141 140 139 136 132 124 120 117 113 110 113 114 117 117 119 122 123 123 123 126 129 127 126 125 123 122 121 123 125 124 126 130 131 131 131 132 129 130 127 125 122 123 123 121 118 115 111 106 107 107 101 98 90 89 93 96 96 94 93 100 104 107 106 98 93 99 97 91 83 81 78 82 74 55 42 38 61 58 53 67 56
145 139 137 139 137 137 137 134 131 126 121 116 115 111 111 115 115 116 119 119 118 121 124 127 128 126 125 124 121 121 119 121 120 121 125 132 135 135 132 131 132 135 131 126 125 119 121 121 119 116 112 113 111 108 104 95 90 87 86 90 98 101 103 100 93 93 93 96 92 93 93 96 95 87 83 76 73 61 54 52 44 58 67 72 69
141 138 139 136 135 136 135 135 133 128 124 120 119 116 114 114 114 114 118 118 120 123 128 130 126 125 123 119 118 118 120 119 121 123 126 131 136 135 134 134 133 132 132 128 124 120 121 121 119 117 119 119 113 109 105 94 95 95 87 81 84 94 96 95 99 99 105 102 100 96 99 91 84 88 86 79 77 72 60 59 63 59 74 83 82
141 138 136 132 135 137 136 135 134 130 126 124 123 121 119 118 118 120 119 120 123 126 130 126 122 122 121 121 123 123 123 124 125 128 129 131 134 135 136 138 134 137 136 131 127 126 123 125 120 121 124 124 115 112 112 107 94 95 99 77 71 68 77 85 91 105 118 128 138 140 114 104 104 89 93 87 75 69 74 78 77 76 86 84 80
139 135 134 140 142 140 138 137 135 132 130 129 128 126 124 123 123 124 124 124 124 126 126 122 123 126 127 129 128 128 128 131 132 133 132 131 132 134 135 135 135 137 130 134 134 132 133 130 131 129 130 125 120 119 115 114 99 98 101 87 72 73 72 76 83 92 95 167 178 203 92 90 92 84 80 79 77 74 75 82 83 78 79 76 72
138 136 137 142 147 143 139 137 135 133 132 133 133 132 131 130 128 126 127 126 125 126 126 128 130 133 135 135 135 137 138 140 140 137 132 130 132 136 136 135 136 136 135 136 138 137 135 136 135 136 133 128 122 122 118 119 107 101 92 86 87 76 74 73 76 102 179 188 244 116 106 102 99 104 95 90 86 77 78 85 82 81 76 86 85
135 137 140 147 146 143 138 135 134 133 133 134 134 133 134 133 131 130 131 131 132 134 135 135 137 139 140 140 141 141 142 141 138 126 114 120 133 135 136 136 138 140 142 141 142 141 140 139 139 138 135 132 125 122 123 120 109 100 93 89 87 81 76 71 96 207 197 230 75 91 89 86 93 95 95 93 92 72 72 78 73 68 61 53 67
140 139 145 148 146 139 139 134 134 134 135 135 134 134 134 134 133 134 134 134 134 135 135 136 138 139 136 135 138 140 143 143 137 125 113 111 109 130 138 140 139 140 140 139 139 141 141 141 142 139 138 129 127 127 126 121 109 102 95 94 88 79 76 75 86 224 229 260 87 73 83 90 94 93 92 88 80 79 68 65 72 73 72 80 95
145 144 144 143 140 141 138 135 135 137 137 137 138 138 137 136 135 135 135 135 134 133 136 137 137 137 137 137 139 142 143 143 137 135 132 134 132 128 132 137 138 135 133 134 137 138 145 142 142 140 132 132 132 130 127 121 112 106 91 84 75 69 72 73 263 276 242 76 85 99 104 107 99 92 91 87 89 95 99 110 112 97 67 63 72
150 145 141 143 145 140 139 137 138 138 138 138 138 138 136 134 134 133 134 135 136 137 141 143 143 142 140 138 138 138 136 140 142 143 144 143 133 131 131 138 134 130 130 133 136 140 137 134 137 138 136 132 130 127 123 119 122 104 90 85 70 61 63 254 232 229 79 112 81 49 32 339 108 91 87 80 75 73 64 50 50 55 72 69 69
150 147 145 140 143 140 140 140 140 140 140 141 141 139 138 136 136 137 137 139 139 141 144 146 144 143 138 134 136 135 138 145 142 136 121 125 132 128 134 133 126 130 131 132 131 131 138 141 136 138 136 131 124 121 122 120 113 108 94 85 69 64 46 274 258 50 64 68 76 88 65 356 77 90 97 95 90 79 69 67 77 84 77 69 64
153 148 142 139 136 142 142 141 140 141 141 141 140 140 137 137 136 137 138 138 141 142 143 140 140 138 134 133 134 136 134 126 127 119 126 143 124 119 110 89 137 125 125 126 125 129 125 111 126 135 129 127 125 122 121 112 99 98 93 81 90 87 319 280 272 75 72 70 66 73 109 94 84 94 115 104 101 98 95 85 83 81 72 71 78
152 149 135 134 143 140 142 142 141 140 142 142 142 142 141 139 138 138 137 136 139 139 140 134 131 129 131 131 132 131 129 130 133 131 139 129 121 127 131 151 134 115 119 124 128 128 124 121 125 127 129 126 120 119 118 108 97 87 83 87 100 136 226 281 276 99 77 80 99 103 90 85 82 108 106 100 93 86 86 87 85 82 73 72 81
155 144 140 139 139 142 138 137 140 141 141 141 140 139 140 138 139 138 137 135 134 133 129 129 127 129 129 127 126 124 124 126 132 134 138 131 141 137 137 121 116 114 113 114 115 119 117 115 116 122 127 120 120 129 120 95 75 55 47 28 312 222 203 247 275 98 92 78 55 63 71 91 92 106 112 106 104 100 89 84 85 80 78 75 78
150 140 138 137 140 148 141 140 136 138 138 138 137 136 138 141 140 137 134 132 132 128 127 127 124 124 124 122 122 122 124 126 130 132 131 138 138 132 128 118 112 109 111 113 113 110 106 105 113 114 111 96 76 69 66 67 58 27 7 354 298 216 205 216 209 104 94 88 105 121 90 87 83 105 104 108 102 93 95 88 82 81 79 77 72
144 138 137 139 142 143 148 143 141 141 139 139 139 139 144 144 143 140 133 128 128 126 125 123 124 123 120 119 122 124 122 124 126 131 134 137 135 124 115 114 112 113 112 110 108 104 101 99 100 101 92 79 50 43 34 45 41 7 335 349 117 174 248 278 137 114 104 114 94 84 94 89 28 111 110 109 104 102 99 93 79 75 79 83 71
138 136 135 136 142 147 149 155 151 142 142 142 143 146 145 141 135 131 124 125 125 126 124 126 123 121 121 121 120 118 117 119 123 126 127 125 117 120 115 113 116 113 114 110 108 109 109 109 106 100 96 88 70 29 20 32 38 9 333 275 128 137 276 292 123 138 86 61 92 86 97 117 70 21 101 97 104 98 93 88 90 87 84 80 80
144 139 127 134 150 151 157 151 152 150 148 147 145 143 140 141 133 128 127 126 121 121 122 124 127 128 125 120 118 118 119 119 123 123 122 122 130 123 126 123 119 114 113 113 112 112 111 109 108 111 110 111 104 78 13 18 26 20 332 221 137 134 237 277 123 124 92 176 89 91 79 79 66 88 106 105 98 101 100 98 99 93 88 83 85
148 144 146 148 153 163 164 158 155 160 156 162 150 146 147 140 136 132 131 127 125 129 130 134 137 133 128 123 123 122 122 122 121 119 117 119 113 120 124 128 119 118 117 116 116 114 112 108 109 108 110 112 115 105 60 21 27 2 26 182 146 142 209 253 118 111 131 126 109 109 84 61 62 124 108 107 105 103 103 99 94 95 88 78 69
148 145 152 157 157 168 159 168 160 156 161 159 155 150 145 142 135 129 129 124 130 135 139 143 138 135 131 131 129 131 133 130 129 127 121 124 141 117 119 117 121 122 123 121 117 115 115 115 112 113 111 109 111 106 92 56 18 6 346 160 162 175 201 212 90 107 118 64 45 93 95 96 132 125 124 120 116 104 103 102 106 105 96 88 78
143 156 156 152 159 160 170 173 156 183 160 147 128 146 152 139 129 130 137 138 146 147 144 142 140 136 138 134 151 147 139 134 156 135 143 135 109 124 123 125 128 128 126 124 122 120 118 118 114 110 118 124 123 116 101 93 63 354 14 199 182 212 168 118 149 139 124 129 155 93 91 100 199 127 123 120 110 104 106 115 113 98 93 90 82
154 153 153 149 153 155 157 157 150 154 122 125 176 158 153 136 133 136 144 146 151 148 153 153 151 141 135 152 154 145 152 152 137 146 142 138 134 126 127 128 129 131 128 132 130 128 128 122 121 119 119 167 203 181 153 137 140 181 226 176 210 192 146 153 162 113 111 116 99 104 88 92 158 125 124 119 115 116 118 119 108 91 95 90 86
155 156 151 158 154 154 161 161 134 125 170 185 169 154 138 160 148 145 149 162 161 160 160 155 153 150 162 154 150 150 163 145 146 165 127 106 120 129 128 130 133 135 143 138 143 138 135 125 119 124 147 220 222 162 185 166 155 165 186 199 198 184 143 141 146 121 95 47 93 100 91 65 354 140 127 124 118 124 142 120 108 104 98 92 94
150 154 155 150 157 159 160 145 139 136 201 131 104 144 156 149 155 162 149 194 169 162 156 158 158 158 150 147 156 151 149 135 110 122 138 141 127 134 137 138 141 152 151 163 152 151 142 138 141 163 199 203 133 189 177 188 167 185 189 191 190 158 159 162 172 123 91 159 86 95 105 66 348 156 137 128 125 130 117 117 113 114 101 95 100
146 157 152 157 156 156 145 141 129 145 172 148 134 149 153 163 168 172 177 172 175 157 158 161 156 154 159 163 155 155 154 145 153 159 174 150 152 152 162 166 171 157 187 182 181 157 177 164 159 191 142 136 164 108 240 159 192 196 171 185 171 167 170 158 131 131 111 85 96 99 107 52 5 281 143 137 131 127 119 123 113 115 109 96 93
143 167 156 152 160 154 142 116 129 153 152 152 143 120 121 124 160 162 152 155 19 158 154 162 156 157 167 159 143 160 162 149 166 168 150 163 169 168 179 165 172 159 190 187 179 179 169 189 173 154 152 138 148 167 186 212 179 205 168 178 163 168 185 158 131 117 102 110 114 107 100 90 15 216 151 140 133 135 118 117 110 109 120 115 114
162 168 153 153 153 155 141 143 148 157 162 157 134 138 164 134 59 139 135 135 234 259 177 168 158 159 160 157 159 172 174 159 173 177 168 182 177 178 178 166 181 179 188 188 176 183 190 158 155 152 154 161 161 161 181 180 202 177 178 174 154 165 170 144 137 139 104 108 117 119 120 85 33 2 149 149 143 139 132 137 132 123 124 124 107
164 154 153 147 162 162 139 158 147 161 168 161 142 164 153 136 142 161 170 158 162 239 246 164 157 173 167 166 178 185 181 172 180 191 170 196 182 187 179 177 189 192 182 192 177 177 174 168 168 165 168 160 161 173 170 165 175 177 160 162 163 164 165 150 121 104 117 116 125 129 125 101 71 5 92 79 150 145 150 141 136 130 125 120 118
149 154 149 160 167 160 156 160 158 163 165 156 136 135 151 137 157 163 200 178 167 165 240 158 173 187 178 182 184 187 208 279 94 308 170 195 188 197 193 193 200 204 183 206 183 173 175 175 169 170 162 154 152 168 170 170 173 161 161 157 163 170 155 160 156 147 124 113 129 127 136 125 96 50 47 102 124 152 150 159 138 137 125 132 144
154 157 167 170 165 167 165 157 162 168 158 136 103 121 156 148 157 160 233 195 189 190 196 177 187 190 179 195 187 183 341 317 170 229 176 202 199 203 231 239 240 210 208 200 183 187 171 173 171 169 153 161 158 155 177 168 165 162 160 156 156 164 159 169 154 158 126 126 116 129 137 142 130 119 54 18 137 118 106 141 134 144 144 149 154
61 159 184 179 167 174 168 164 165 153 163 155 145 177 183 154 150 175 186 208 163 166 163 183 189 177 145 144 23 353 255 347 2 346 327 287 214 14 315 295 274 352 302 257 28 4 303 164 177 164 153 164 150 153 187 171 164 165 169 166 163 168 167 155 165 144 145 136 134 139 144 146 157 141 84 43 62 118 127 140 154 147 149 159 151
135 203 266 190 183 181 171 168 144 159 183 161 155 148 155 203 189 205 173 153 140 168 161 182 194 89 30 4 39 49 42 25 304 252 232 280 340 206 228 226 240 206 3 22 10 217 264 196 166 165 151 162 151 156 174 171 169 162 165 167 166 176 173 178 179 166 162 146 137 129 143 157 156 151 148 159 120 92 147 144 153 138 147 166 167
142 169 222 240 193 187 177 165 145 150 183 166 177 167 183 185 167 166 142 140 167 140 152 173 88 65 48 43 48 54 69 20 252 245 278 277 254 238 224 224 218 184 177 219 227 278 265 220 161 161 163 164 155 146 147 340 188 157 187 161 184 187 170 182 176 175 164 155 155 144 141 135 150 147 144 162 129 94 88 121 150 142 151 166 171
156 176 185 236 208 188 178 170 141 157 198 176 171 190 176 166 161 141 126 147 123 120 109 116 94 107 126 125 97 84 54 236 247 206 241 237 244 251 248 241 243 218 200 196 132 249 233 213 159 171 160 168 158 154 144 171 176 202 210 180 189 163 197 176 165 177 165 158 158 149 148 146 156 146 165 143 127 117 90 93 138 178 100 162 176
163 163 181 214 215 189 180 170 154 177 185 175 178 185 179 157 137 124 123 124 126 139 116 121 119 111 117 185 175 142 184 219 221 189 221 226 227 220 236 215 215 232 193 171 206 184 202 172 174 168 164 164 152 152 157 148 173 189 177 277 189 184 230 194 164 201 177 149 149 158 125 132 139 161 152 168 137 125 113 102 120 114 173 177 187
172 164 179 207 214 198 181 176 173 171 180 169 173 172 146 143 96 127 127 136 143 143 130 128 70 127 134 151 187 172 195 216 204 193 206 219 232 226 228 237 244 297 215 173 259 273 136 183 137 146 157 174 170 161 156 146 165 151 119 212 231 273 257 229 192 240 181 178 164 150 174 125 145 92 111 152 161 142 143 135 134 132 131 186 214
172 174 174 190 230 196 187 179 175 173 166 162 161 149 143 141 142 107 107 109 102 79 79 98 135 82 128 134 163 191 230 224 208 182 185 206 214 233 199 235 211 199 242 6 162 249 245 121 193 153 187 191 192 162 159 155 154 142 116 66 31 20 326 21 205 296 63 34 12 25 17 57 94 223 219 152 154 172 160 158 152 153 156 139 191
181 180 153 190 233 201 190 180 166 164 158 157 147 135 126 124 116 94 74 73 73 90 110 91 88 92 91 95 126 170 228 209 172 168 165 180 194 173 347 296 249 222 171 191 182 291 164 218 155 181 196 203 202 181 162 163 154 152 132 103 73 42 26 29 33 26 66 78 155 74 38 31 348 353 351 332 48 153 171 166 173 175 165 158 147
186 184 167 185 230 207 121 343 183 147 146 137 133 113 103 82 76 102 119 121 120 95 98 107 87 116 108 120 128 158 207 214 182 152 159 169 183 165 196 257 244 238 194 212 206 146 278 228 175 179 214 220 201 150 134 149 146 138 133 137 137 71 29 25 358 52 60 116 164 197 189 99 309 300 308 327 351 352 38 160 172 231 144 137 116
191 188 186 192 203 181 126 178 223 151 137 138 141 134 138 159 153 144 143 128 126 119 131 102 136 113 111 122 141 159 168 197 178 154 160 158 174 169 199 221 227 311 279 272 209 191 179 225 210 200 203 200 198 155 161 163 138 137 137 140 142 133 68 23 189 152 149 199 203 209 181 159 197 161 155 53 2 32 41 33 350 116 143 136 131
193 186 179 187 169 189 172 176 178 149 151 154 154 152 162 161 166 168 148 142 137 130 124 112 106 78 63 104 117 127 137 134 151 142 143 143 162 165 187 195 173 197 207 255 208 186 193 223 190 207 207 206 178 170 165 177 158 156 157 163 159 152 124 127 119 128 112 136 152 175 153 177 151 148 104 100 85 85 90 53 62 58 24 139 166
185 183 182 180 169 190 188 165 158 163 161 160 153 165 172 174 168 154 142 137 140 153 130 124 105 107 105 88 108 119 118 118 113 116 104 112 122 153 211 167 171 192 184 198 184 165 178 188 191 195 221 214 192 187 178 195 185 185 166 158 158 146 125 126 129 84 97 113 130 131 121 148 131 104 112 127 104 123 113 94 93 65 60 49 31
177 180 182 187 168 177 194 184 164 171 164 160 164 170 170 156 164 134 149 131 105 92 105 100 116 113 103 99 93 100 124 120 116 116 122 140 152 160 177 151 173 159 182 178 173 173 187 181 189 205 195 216 208 187 194 209 223 175 187 178 170 185 148 155 114 94 111 99 111 123 130 133 102 113 94 79 85 65 65 62 61 74 98 99 86
180 183 193 186 177 189 177 185 165 174 163 165 176 162 148 137 132 133 117 128 121 109 106 114 107 116 116 111 95 109 102 105 106 127 121 119 166 166 163 169 159 176 192 180 172 177 180 181 185 198 212 192 190 197 208 204 281 170 192 210 187 152 158 178 141 113 116 116 130 114 111 96 109 96 105 89 63 49 46 50 47 62 49 39 42
184 189 191 189 185 185 176 179 173 170 166 161 170 153 147 153 134 122 115 110 124 134 139 128 123 112 119 130 112 125 131 111 110 108 102 91 66 64 65 134 165 170 190 169 167 163 171 185 182 198 203 220 192 191 199 212 241 266 306 209 156 190 187 157 133 111 132 120 97 87 69 96 84 78 82 82 99 87 70 64 51 52 39 29 28
192 194 187 193 188 183 180 180 179 172 165 165 165 161 167 157 152 153 154 156 146 154 147 140 146 149 111 102 123 123 113 104 107 86 88 109 111 97 94 257 182 185 181 170 160 152 162 180 192 201 204 199 192 190 188 191 228 234 249 351 303 349 232 150 179 131 109 83 89 102 106 70 68 76 61 59 47 52 55 76 75 69 54 48 37
195 195 190 195 187 188 183 183 182 172 168 166 166 173 165 161 162 161 155 151 142 133 120 132 131 119 119 128 110 131 134 130 101 88 94 94 98 109 120 160 116 163 199 214 184 183 179 179 173 206 179 160 198 204 181 174 188 221 231 247 284 202 235 162 192 134 140 125 95 96 80 75 66 64 67 61 65 68 60 64 62 62 63 59 53
188 186 193 194 187 185 187 184 178 174 171 167 169 176 162 165 167 160 147 146 144 135 140 128 119 122 121 129 131 134 151 130 122 100 99 98 92 106 116 110 123 131 184 184 181 176 171 133 151 180 181 174 177 209 193 187 201 172 204 214 218 227 211 225 227 178 153 149 134 92 86 83 81 74 73 76 77 75 69 66 75 71 64 59 56
186 187 185 182 182 184 180 176 169 166 170 167 171 168 164 167 168 153 149 133 132 136 140 137 133 128 128 129 121 117 122 93 81 109 102 85 93 90 103 135 116 98 113 103 102 86 90 123 148 174 170 198 212 194 190 199 204 169 184 190 200 189 176 190 207 237 146 146 133 121 102 90 94 83 76 79 81 76 69 63 62 77 79 71 66
179 169 171 172 180 182 173 163 155 153 161 165 168 162 162 166 169 156 142 131 133 136 143 142 141 145 133 136 137 142 130 138 127 106 101 99 77 80 112 111 107 101 84 80 88 88 96 132 152 165 165 169 187 214 198 177 197 156 214 173 188 164 169 165 184 196 166 160 139 142 140 147 119 94 95 99 95 90 86 76 69 64 64 71 76
148 151 158 176 178 174 164 159 145 141 154 163 166 157 157 168 161 150 149 138 142 144 143 153 149 149 139 140 142 126 130 114 132 123 99 92 79 55 75 100 101 93 92 101 70 75 109 121 130 148 160 169 176 177 184 173 176 174 205 189 179 181 172 174 179 190 175 160 141 144 155 130 115 115 97 84 92 96 94 88 77 63 67 67 67